Regional Weather Roundup
Issued by NWS Bismarck, ND

Current Version | Previous Version | Text Only | Print | Product List | Glossary On
Versions: 1 2 3 4 5 6 7 8 9 10 11 12 13 14 15 16 17 18 19 20 21 22 23 24 25 26 27 28 29 30 31 32 33 34 35 36 37 38 39 40 41 42 43 44 45 46 47 48 49 50
000
ASUS43 KBIS 300110
RWRBIS

NWR BROADCAST TEXT
NATIONAL WEATHER SERVICE BISMARCK ND
700 PM CST THU JAN 29 2015

NOTE: "FAIR" INDICATES FEW OR NO CLOUDS BELOW 12,000 FEET WITH NO
SIGNIFICANT WEATHER AND/OR OBSTRUCTIONS TO VISIBILITY.


CITY           SKY/WX    TMP DP  RH WIND       PRES   REMARKS
WILLISTON      CLEAR     26  20  77 SE7       30.36F WCI  18
MINOT          CLEAR     13   9  84 E6        30.45S WCI   4
MINOT AFB      CLEAR     12  11  97 SE9       30.45S WCI   0
BISMARCK       CLEAR     21  18  88 E7        30.47S WCI  12
DICKINSON      CLEAR     27  18  69 E9        30.35S WCI  18
GARRISON         N/A     19  15  84 E7        30.43S WCI  10
HETTINGER ARPT CLEAR     25  17  72 CALM      30.38S
JAMESTOWN      CLOUDY    18  12  77 NW8       30.50R WCI   8
BEACH          FAIR      25  25 100 S7        30.35S WCI  17
CARRINGTON     FLURRIES  16  14  93 MISG      30.51S
CROSBY         FAIR      19  19 100 E6        30.37F WCI  11
HARVEY         CLOUDY    14  10  85 NE5       30.50R WCI   6
HAZEN          FAIR      23  18  80 SE7       30.45R WCI  15
LINTON         FAIR      19  19 100 E6        30.46F WCI  11
MANDAN         FAIR      23  18  80 E8        30.45F WCI  14
OAKES            N/A     19  16  86 N10       30.52S WCI   8
RUGBY          FAIR       5   3  92 W3        30.50S
TIOGA          FAIR      19  19 100 SE8       30.39F WCI   9
WATFORD CITY   FAIR      27  23  86 SE8       30.35F WCI  18
$$

CITY           SKY/WX    TMP DP  RH WIND       PRES   REMARKS
GRAND FORKS    PTCLDY     6   0  76 N6        30.57S WCI  -4
GRAND FORKS AF CLEAR      6   0  79 NE5       30.58R WCI  -3
DEVILS LAKE    CLOUDY    10   5  79 E5        30.49F WCI   2
FARGO          CLEAR     12   4  70 N7        30.56R WCI   1
CANDO          CLOUDY    10   5  79 E5        30.51S WCI   2
CAVALIER       FAIR       5   0  78 NE5       30.58S WCI  -4
GWINNER        CLOUDY    19  14  79 N10       30.54R WCI   8
ROLLA          MOCLDY     7   5  92 S3        30.47S
WALHALLA         N/A      5   1  85 N5        30.57S WCI  -4
$$

CITY           SKY/WX    TMP DP  RH WIND       PRES   REMARKS
ABERDEEN       CLOUDY    23  16  74 N9        30.53R WCI  13
MOBRIDGE       CLEAR     27  19  72 NE7       30.44S WCI  19
BUFFALO          N/A     34  10  37 SE8       30.30S
RAPID CITY     CLEAR     33  14  45 E3        30.39S
GLASGOW        CLEAR     32  28  85 E13       30.25F
SIDNEY         CLEAR     28  23  80 CALM      30.36F
WOLF POINT     CLEAR     30  24  78 NE6       30.30F
GLENDIVE       CLEAR     36  27  69 SE6       30.33F
MILES CITY     CLEAR     38  23  55 SE8       30.29F
BAKER          CLEAR     27  17  66 S6        30.34F
$$

CITY           SKY/WX    TMP DP  RH WIND       PRES   REMARKS
BILLINGS       PTCLDY    42  28  57 W12       30.25F
GREAT FALLS    MOCLDY    41  20  43 S10       30.20S
REGINA         MOCLDY    14  12  92 SE14      30.32F WCI  -1
ESTEVAN        MOCLDY    16  12  86 E12       30.37F WCI   3
$$



USA.gov is the U.S. government's official web portal to all federal, state and local government web resources and services.